Location: Cazavet
(43.0017°N, 1.0431°E)
Time: 09:11:09
(UTC+00:00)

Cosmos 1707 Rocket - Pass Details

Date: 18 January 2026
Orbit: 598 x 624 km, 82.5° (Epoch: 9 February)

Event Time Altitude Azimuth Distance (km) Brightness Sun altitude
Rises 06:16:01 0° 347° (NNW) 2,859 6.7 -12.1°
Reaches altitude 10° 06:18:15 10° 344° (NNW) 1,954 5.8 -11.7°
Maximum altitude 06:22:29 57° 266° (W) 713 3.6 -11.0°
Drops below altitude 10° 06:26:43 10° 187° (S) 1,952 6.3 -10.2°
Sets 06:28:57 0° 184° (S) 2,855 7.2 -9.9°
